Overview Statistics Trail Chart Weather Telemetry Raw packets
 

This is the latest recevied weather packets stored in our database for station/object K5OLV. If no packets are shown the sender has not sent any weather packets the latest 10 day(s).

<< 103 104 105 106 107 108 109 >>
Time Temp. Humidity Pressure Rain* Wind** Luminosity Snow
1787836823 22.78° C 93% 1014.5 hPa 0 mm - 156 W/m² -
1787836518 22.78° C 92% 1014.5 hPa 0 mm - 148 W/m² -
1787836213 22.22° C 90% 1014.5 hPa 0 mm - 154 W/m² -
1787835909 21.67° C 93% 1014.3 hPa 0 mm - 238 W/m² -
1787835609 21.11° C 94% 1014.5 hPa 0 mm - 237 W/m² -
1787835304 20.56° C 96% 1014.7 hPa 0 mm - 140 W/m² -
1787834999 20° C 96% 1014.2 hPa 0 mm - 105 W/m² -
1787834698 20° C 96% 1014.1 hPa 0 mm - 81 W/m² -
1787834393 20° C 96% 1014.2 hPa 0 mm - 73 W/m² -
1787834089 19.44° C 96% 1013.9 hPa 0 mm - 67 W/m² -
1787833789 19.44° C 97% 1014.3 hPa 0 mm - 68 W/m² -
1787833484 18.89° C 97% 1014.1 hPa 0 mm - 64 W/m² -
1787833179 18.89° C 97% 1014.3 hPa 0 mm - 60 W/m² -
1787832876 18.89° C 96% 1014.3 hPa 0 mm - 51 W/m² -
1787832571 18.89° C 96% 1014.2 hPa 0 mm - 45 W/m² -
1787832270 18.89° C 96% 1014.3 hPa 0 mm - 39 W/m² -
1787831967 18.89° C 95% 1014.3 hPa 0 mm - 35 W/m² -
1787831663 18.89° C 95% 1013.9 hPa 0 mm - 32 W/m² -
1787831362 18.89° C 94% 1014.1 hPa 0 mm - 28 W/m² -
1787831059 18.89° C 94% 1014 hPa 0 mm - 21 W/m² -
1787830758 18.89° C 95% 1013.9 hPa 0 mm - 16 W/m² -
1787830457 18.89° C 95% 1013.8 hPa 0 mm - 14 W/m² -
1787830156 18.89° C 95% 1013.8 hPa 0 mm - 11 W/m² -
1787829851 18.33° C 95% 1013.6 hPa 0 mm - 9 W/m² -
1787829550 18.33° C 95% 1013.4 hPa 0 mm - 6 W/m² -

* Rain latest hour (hover to see other rain measurements)
** Current wind speed in m/s (hover to see current wind gust speed)